Regional Weather Roundup
Issued by NWS

Home | Current Version | Previous Version | Text Only | Print | Product List | Glossary On
Versions: 1 2 3 4 5 6 7 8 9 10 11 12 13 14 15 16 17 18 19 20 21 22 23 24 25 26 27 28 29 30 31 32 33 34 35 36 37 38 39 40 41 42 43 44 45 46 47 48 49 50
885
ASUS45 KPSR 140010
RWRAZ

ARIZONA HOURLY REGIONAL WEATHER ROUNDUP
NATIONAL WEATHER SERVICE PHOENIX AZ
500 PM MST SAT FEB 13 2016

NOTE: FAIR INDICATES FEW OR NO CLOUDS BELOW 12,000 FEET WITH NO
SIGNIFICANT WEATHER AND/OR OBSTRUCTIONS TO VISIBILITY.

AZZ001>003-036-140100-
NORTHWEST ARIZONA

CITY           SKY/WX    TMP DP  RH WIND       PRES   REMARKS
BULLHEAD CITY  MOSUNNY   79  23  12 N18       30.02S
KINGMAN        MOSUNNY   71  20  14 N7        30.12R
6HR MIN TEMP:  62; 6HR MAX TEMP:  75;

$$

AZZ004>008-015-016-018-140100-
NORTH CENTRAL ARIZONA

CITY           SKY/WX    TMP DP  RH WIND       PRES   REMARKS
GRAND CANYON   MOSUNNY   62   1   8 VRB6      30.23R
6HR MIN TEMP:  60; 6HR MAX TEMP:  65;

WILLIAMS       SUNNY     61   1   9 NW7G15    30.28R
PRESCOTT       MOSUNNY   69  12  11 NE6       30.14S
6HR MIN TEMP:  59; 6HR MAX TEMP:  73;

FLAGSTAFF      SUNNY     58  11  15 W6        30.23R
6HR MIN TEMP:  55; 6HR MAX TEMP:  62;

PAYSON         MOSUNNY   66  18  15 S6        30.16S
PAGE           PTSUNNY   57  31  37 N3        30.14R
6HR MIN TEMP:  46; 6HR MAX TEMP:  60;

$$

AZZ009>014-017-140100-
NORTHEAST ARIZONA

CITY           SKY/WX    TMP DP  RH WIND       PRES   REMARKS
WINSLOW        SUNNY     70  13  11 N8        30.13R
6HR MIN TEMP:  52; 6HR MAX TEMP:  73;

SAINT JOHNS    SUNNY     67   5   8 N14       30.13S
6HR MIN TEMP:  57; 6HR MAX TEMP:  71;

WINDOW ROCK    CLEAR     62   0   8 W9        30.18F
6HR MIN TEMP:  53; 6HR MAX TEMP:  65;

SHOW LOW       SUNNY     63   9  12 SW10      30.20R
$$

AZZ023-140100-
GREATER PHOENIX AREA

CITY           SKY/WX    TMP DP  RH WIND       PRES   REMARKS
PHOENIX        MOSUNNY   84  20   9 W6        29.95S
6HR MIN TEMP:  73; 6HR MAX TEMP:  87;

BUCKEYE        SUNNY     82  30  15 SW3       29.99S
GLENDALE       MOSUNNY   82  28  14 S6        29.98S
LUKE AFB       MOSUNNY   81  33  17 SW5       29.95F
6HR MIN TEMP:  70; 6HR MAX TEMP:  82;

DEER VALLEY    MOSUNNY   80  23  12 W5        29.97S
6HR MIN TEMP:  71; 6HR MAX TEMP:  82;

SCOTTSDALE     MOSUNNY   82  18   9 VRB3      29.99R
6HR MIN TEMP:  72; 6HR MAX TEMP:  83;

MESA-FALCON    MOSUNNY  N/A N/A N/A W8        29.97S
MESA-GATEWAY   MOSUNNY   81  25  12 W7        29.98S
CHANDLER       MOSUNNY   84  21  10 W7        29.97S
$$

AZZ027-028-140100-
SOUTHWEST MARICOPA COUNTY AND PINAL COUNTY

CITY           SKY/WX    TMP DP  RH WIND       PRES   REMARKS
CASA GRANDE    SUNNY     81  27  13 CALM      29.99F
6HR MIN TEMP:  66; 6HR MAX TEMP:  81;

GILA BEND      FAIR      82  28  14 W3        29.95F
6HR MIN TEMP:  67; 6HR MAX TEMP:  83;

$$

AZZ503-504-507>509-140100-
SOUTHEAST ARIZONA

CITY           SKY/WX    TMP DP  RH WIND       PRES   REMARKS
TUCSON         SUNNY     82  13   7 NW14G21   30.01S
6HR MIN TEMP:  74; 6HR MAX TEMP:  86;

DAVIS-MONTHAN  SUNNY     80  17   9 NW16      29.99S
6HR MIN TEMP:  73; 6HR MAX TEMP:  83;

RYAN FIELD     SUNNY     82  25  12 NW17      30.01S
NOGALES        SUNNY     79  14   8 W12       30.05S
6HR MIN TEMP:  73; 6HR MAX TEMP:  84;

SIERRA VISTA   SUNNY     76  11   8 W13       30.10S
6HR MIN TEMP:  72; 6HR MAX TEMP:  79;

DOUGLAS        SUNNY     79  12   8 SE5       30.05F
6HR MIN TEMP:  68; 6HR MAX TEMP:  81;

SAFFORD        SUNNY     78  14   9 W7        30.02S
6HR MIN TEMP:  65; 6HR MAX TEMP:  79;

$$

AZZ020-021-025-026-031-140100-
SOUTHWEST ARIZONA

CITY           SKY/WX    TMP DP  RH WIND       PRES   REMARKS
YUMA           SUNNY     87  21   9 N9        29.95F
6HR MIN TEMP:  74; 6HR MAX TEMP:  88;

$$

CAZ031-033-041-043-047-048-061-140100-
SOUTHERN CALIFORNIA

CITY           SKY/WX    TMP DP  RH WIND       PRES   REMARKS
DOWNTOWN L.A.  SUNNY     67  51  56 VRB5      30.03F
6HR MIN TEMP:  67; 6HR MAX TEMP:  75;

L.A. AIRPORT   MOSUNNY   58  52  80 W5        30.04F FOG
6HR MIN TEMP:  56; 6HR MAX TEMP:  62;

SAN DIEGO      MOSUNNY   65  54  67 W8        30.04S
6HR MIN TEMP:  62; 6HR MAX TEMP:  73;

BURBANK        SUNNY     73  37  27 S6        30.02F
6HR MIN TEMP:  69; 6HR MAX TEMP:  79;

ONTARIO        MOSUNNY   78  43  28 W10       30.02F
6HR MIN TEMP:  68; 6HR MAX TEMP:  83;

RIVERSIDE      MOSUNNY   78  42  27 W10       30.02S
6HR MIN TEMP:  70; 6HR MAX TEMP:  83;

PALM SPRINGS   SUNNY     86  24  10 E5        29.99S
6HR MIN TEMP:  76; 6HR MAX TEMP:  87;

EL CENTRO NAS  SUNNY     88  14   6 CALM      29.96F
6HR MIN TEMP:  73; 6HR MAX TEMP:  88;

IMPERIAL       SUNNY     88  16   7 N3        29.94F
6HR MIN TEMP:  72; 6HR MAX TEMP:  88;

BLYTHE         SUNNY     84  27  12 CALM      29.98F
6HR MIN TEMP:  67; 6HR MAX TEMP:  84;

NEEDLES        MOSUNNY   83  20   9 N12       30.01F
6HR MIN TEMP:  68; 6HR MAX TEMP:  84;

$$

NVZ020-UTZ003-140100-
SOUTHERN NEVADA-UTAH

CITY           SKY/WX    TMP DP  RH WIND       PRES   REMARKS
LAS VEGAS      MOSUNNY   75  21  13 NE3       30.06S
6HR MIN TEMP:  62; 6HR MAX TEMP:  75;

SALT LAKE CITY CLEAR     35  29  78 N12       30.30R HAZE    WCI  27
6HR MIN TEMP:  31; 6HR MAX TEMP:  37;

$$

NMZ009-TXZ055-140100-
NEW MEXICO-WEST TEXAS

CITY           SKY/WX    TMP DP  RH WIND       PRES   REMARKS
ALBUQUERQUE    PTCLDY    67  13  12 S8        30.09F
6HR MIN TEMP:  53; 6HR MAX TEMP:  69;

EL PASO        PTCLDY    75   4   6 SW9       30.05F
6HR MIN TEMP:  62; 6HR MAX TEMP:  78;

$$


........................KEY........................
SKY/WX - SKY CONDITION/WEATHER
TMP    - TEMPERATURE IN FAHRENHEIT
DP     - DEW POINT IN FAHRENHEIT
RH     - RELATIVE HUMIDITY IN PERCENT
WIND   - DIRECTION AND SPEED IN MILES PER HOUR (MPH)
VRB    - VARIABLE WIND DIRECTION
PRES   - MEAN SEA LEVEL PRESSURE IN INCHES OF MERCURY
         F - FALLING PRESSURE   R - RISING PRESSURE
         S - STEADY PRESSURE
VSB    - VISIBILITY IN MILES
HX     - HEAT INDEX IN FAHRENHEIT
WCI    - WIND CHILL INDEX IN FAHRENHEIT
TC     - TEMPERATURE IN CELSIUS WHICH IS ALSO KNOWN AS
         TEMPERATURE IN CENTIGRADE
AFB    - AIR FORCE BASE
         LUKE AFB IS LUKE AIR FORCE BASE
         DAVIS-MONTHAN IS DAVIS-MONTHAN AIR FORCE BASE
NAS    - NAVAL AIR STATION
         EL CENTRO NAS IS EL CENTRO NAVAL AIR STATION
N/A    - NOT AVAILABLE





USA.gov is the U.S. government's official web portal to all federal, state and local government web resources and services.